#timestamp,LO_Frequency,Hit,StdDev 
1583709595.0,286047012.9,P
1583709595.9,286047012.9,P
1583709615.8,286047015.6,P
1583709635.6,286047014.9,Y
1583709655.5,286047002.1,P
1583709675.3,286047000.5,N
1583709695.1,286047002.7,N
1583709715.9,286047002.3,N
1583709735.7,286046999.9,N
1583709755.6,286047001.6,N
1583709775.4,286047004.4,N
1583709795.2,286047006.0,N
1583709815.1,286047005.1,N
1583709816.0,286047005.1,N
1583709835.8,286047007.0,N
1583709855.6,286047009.0,N
1583709875.5,286047006.7,N
1583709895.3,286047004.9,N
1583709915.2,286047004.8,N
1583709935.9,286047007.0,N
1583709955.7,286047010.7,Y
1583709975.6,286047005.1,P
1583709995.4,286047005.2,P
1583710015.3,286047008.7,P
1583710035.1,286047006.1,Y
1583710055.8,286047002.7,P
1583710075.7,286047000.1,N
1583710095.5,286047000.9,N
1583710115.4,286047001.2,N
1583710135.2,286047002.7,N
1583710155.0,286046999.7,N
1583710155.9,286046999.7,N
1583710175.8,286046998.4,N
1583710195.6,286046998.4,N
1583710215.5,286047002.7,N
1583710235.3,286047002.7,N
1583710255.1,286047000.9,N
1583710275.9,286046998.4,N
1583710295.7,286047000.8,N
1583710315.5,286047000.5,N
1583710335.4,286047002.4,N
1583710355.2,286047001.9,N
1583710375.0,286047004.2,N
1583710376.0,286047004.2,N
1583710395.8,286047003.5,N
1583710445.7,286047007.5,E
1583710455.6,286047003.9,N
1583710475.4,286046999.3,P
1583710495.3,286046998.2,N
1583710515.1,286047001.0,N
1583710516.0,286047001.0,N
1583710535.8,286047002.4,N
1583710555.7,286047001.8,N
1583710575.5,286047003.8,N
1583710595.3,286047003.1,N
1583710615.2,286047003.0,N
1583710635.0,286047007.3,Y
1583710635.9,286047007.3,P
1583710655.8,286047003.5,N
1583710675.6,286047003.2,N
1583710695.4,286047004.2,N
1583710715.3,286047003.2,N
1583710735.1,286047001.3,N
1583710755.8,286047001.8,N
1583710775.7,286047004.4,N
1583710795.5,286047002.1,N
1583710815.4,286046999.8,N
1583710835.2,286047000.1,N
1583710855.0,286047003.5,N
1583710855.9,286047003.5,N
1583710875.8,286047004.5,N
1583710895.6,286047003.4,N
1583710915.5,286047003.9,N
1583710935.3,286047004.9,N
1583710955.1,286047007.2,Y
1583710975.9,286047003.2,P
1583710995.7,286047003.1,P
1583711015.5,286047003.7,P
1583711035.4,286047003.7,Y
1583711055.2,286047001.2,P
1583711075.1,286046998.1,N
1583711076.0,286046998.1,N
1583711095.8,286046999.9,N
1583711115.6,286047000.5,N
1583711135.5,286047002.3,N
1583711155.3,286047001.3,N
1583711175.1,286047003.4,N
1583711195.9,286047005.0,N
1583711215.7,286047006.8,Y
1583711235.6,286047004.7,P
1583711255.4,286047007.3,P
1583711275.2,286047005.3,N
1583711295.1,286047007.3,Y
1583711296.0,286047007.3,P
1583711315.8,286047000.0,N
1583711335.7,286047001.0,N
1583711355.5,286047001.2,N
1583711375.3,286046999.4,N
1583711395.2,286046998.8,N
1583711415.9,286046999.9,N
1583711435.7,286047000.4,N
1583711455.6,286047000.4,N
1583711475.4,286047002.5,N
1583711495.3,286047001.7,N
1583711515.1,286047001.6,N
1583711516.0,286047001.6,N
1583711535.8,286047004.4,N
1583711555.7,286047003.6,N
1583711575.5,286047005.1,N
1583711595.3,286047004.5,N
1583711615.2,286047007.2,Y
1583711635.0,286047004.9,P
1583711635.9,286047004.9,P
1583711655.8,286047007.6,P
1583711675.6,286047006.3,Y
1583711695.4,286047004.2,P
1583711715.3,286047004.1,P
1583711735.1,286047003.7,P
1583711755.9,286047004.8,Y
1583711775.7,286046999.9,P
1583711795.5,286047001.1,N
1583711815.4,286047001.1,N
1583711835.2,286047001.5,N
1583711855.0,286047001.8,N
1583711855.9,286047001.8,N
1583711875.8,286047003.5,N
1583711895.6,286047005.3,Y
1583711915.5,286047003.8,P
1583711935.3,286047005.7,P
1583711955.1,286047006.8,P
1583711975.9,286047007.0,Y
1583711995.7,286047002.4,P
